DW6873 Weather Reports


Display with metric or nautical units.
time (UTC)temp
F
wind
direction
speed
MPH
gust
MPH
rain 1hr
in
rain 24hr
in
rain mn
in
humidity
%
barometer
mb
20260903184518 66 355 0.0 0.0 0.00 0.00 0.00 89 1004.5
20260903183015 66 310 0.0 0.0 0.00 0.00 0.00 91 1004.4
20260903181518 65 26 0.0 0.0 0.00 0.00 0.00 92 1004.3
20260903180036 64 316 0.0 0.0 0.00 0.00 0.00 92 1004.6
20260903174515 65 348 0.0 0.0 0.00 0.00 0.00 92 1004.4
20260903173012 64 25 0.0 1.0 0.00 0.00 0.00 93 1002.9
20260903171512 63 9 0.0 0.0 0.00 0.00 0.00 95 1003.1
20260903170015 64 342 0.0 0.0 0.00 0.00 0.00 94 1003.4
20260903164510 64 332 0.0 0.0 0.00 0.00 0.00 93 1003.5
20260903163042 64 51 0.0 0.0 0.00 0.00 0.00 91 1003.3
20260903161551 65 23 0.0 0.0 0.00 0.00 0.00 90 1003.0
20260903160041 64 127 0.0 0.0 0.00 0.00 0.00 90 1002.9
20260903154536 64 51 0.0 1.0 0.00 0.00 0.00 89 1002.4
20260903153034 64 43 0.0 0.0 0.00 0.00 0.00 88 1002.0
20260903151543 64 26 0.0 0.0 0.00 0.00 0.00 88 1002.2
20260903150038 65 311 0.0 0.0 0.00 0.00 0.00 86 1002.4
20260903144529 65 36 0.0 0.0 0.00 0.00 0.00 85 1002.5
20260903143031 64 29 0.0 0.0 0.00 0.00 0.00 85 1002.6
20260903141530 64 39 0.0 1.0 0.00 0.00 0.00 85 1002.8
20260903140037 64 18 0.0 1.0 0.00 0.00 0.00 85 1002.7
20260903134521 0 0.0 0.0 0.00 0.00 0.00 1002.8
20260903133017 0 0.0 0.0 0.00 0.00 0.00 1002.9
20260903131512 0 0.0 0.0 0.00 0.00 0.00 1003.0
20260903130005 0 0.0 0.0 0.00 0.00 0.00 1003.2
20260903124501 0 0.0 0.0 0.00 0.00 0.00 1003.1
20260903123056 0 0.0 0.0 0.00 0.00 0.00 1002.7
20260903121552 0 0.0 0.0 0.00 0.00 0.00 1002.4
20260903120050 0 0.0 0.0 0.00 0.00 0.00 1002.0
20260903114600 0 0.0 0.0 0.00 0.00 0.00 1002.0
20260903113036 0 0.0 0.0 0.00 0.00 0.00 1002.3
20260903111532 0 0.0 0.0 0.00 0.00 0.00 1002.0
20260903110104 0 0.0 0.0 0.00 0.00 0.00 1001.7
20260903104600 0 0.0 0.0 0.00 0.00 0.00 1001.5
20260903103018 0 0.0 0.0 0.00 0.00 0.00 1001.7
20260903101513 64 103 0.0 0.0 0.00 0.00 0.00 78 1002.0
20260903100112 64 108 0.0 1.0 0.00 0.00 0.00 77 1002.2
20260903094542 64 101 0.0 1.0 0.00 0.00 0.00 76 1001.8
20260903093051 64 132 0.0 0.0 0.00 0.00 0.00 75 1002.2
20260903091533 64 105 0.0 0.0 0.00 0.00 0.00 74 1002.7
20260903090034 65 107 0.0 0.0 0.00 0.00 0.00 73 1002.8
20260903090032 65 77 0.0 0.0 0.00 0.00 0.00 73 1002.8
20260903084534 65 46 0.0 0.0 0.00 0.00 0.00 73 1002.9
20260903083031 65 54 0.0 1.0 0.00 0.00 0.00 73 1002.9
20260903081534 65 50 0.0 0.0 0.00 0.00 0.00 73 1002.9
20260903080026 64 63 0.0 0.0 0.00 0.00 0.00 73 1003.2
20260903074522 65 83 0.0 0.0 0.00 0.00 0.00 73 1003.4
20260903073118 65 98 0.0 0.0 0.00 0.00 0.00 72 1003.9
20260903071519 66 92 0.0 0.0 0.00 0.00 0.00 71 1004.3
20260903070020 66 75 0.0 0.0 0.00 0.00 0.00 71 1004.3
20260903064512 66 72 0.0 0.0 0.00 0.00 0.00 71 1004.6
20260903063010 66 119 0.0 0.0 0.00 0.00 0.00 71 1005.0
20260903061539 66 61 0.0 0.0 0.00 0.00 0.00 71 1005.1
20260903060035 66 108 0.0 0.0 0.00 0.00 0.00 70 1005.4
20260903054536 66 76 0.0 0.0 0.00 0.00 0.00 71 1005.6
20260903053031 66 72 0.0 0.0 0.00 0.00 0.00 72 1005.7
20260903051531 65 56 0.0 0.0 0.00 0.00 0.00 72 1005.9
20260903050028 66 67 0.0 0.0 0.00 0.00 0.00 71 1005.9
20260903044523 66 41 0.0 0.0 0.00 0.00 0.00 71 1006.0
20260903043023 66 108 0.0 0.0 0.00 0.00 0.00 71 1006.0
20260903041520 66 76 0.0 0.0 0.00 0.00 0.00 70 1006.1
20260903040019 67 101 0.0 0.0 0.00 0.00 0.00 70 1006.1
20260903034515 66 113 0.0 0.0 0.00 0.00 0.00 70 1006.1
20260903033021 67 79 0.0 0.0 0.00 0.00 0.00 68 1006.3
20260903031516 68 148 0.0 0.0 0.00 0.00 0.00 67 1006.3
20260903030010 68 71 0.0 0.0 0.00 0.00 0.00 67 1006.2
20260903024505 68 135 0.0 0.0 0.00 0.00 0.00 66 1006.5
20260903023003 68 113 0.0 0.0 0.00 0.00 0.00 65 1006.5
20260903021504 69 113 0.0 0.0 0.00 0.00 0.00 63 1006.6
20260903020001 70 107 0.0 0.0 0.00 0.00 0.00 62 1006.5
20260903014609 71 110 0.0 0.0 0.00 0.00 0.00 60 1006.1
20260903013056 72 79 0.0 0.0 0.00 0.00 0.00 58 1006.0
20260903011556 73 102 0.0 0.0 0.00 0.00 0.00 57 1005.8
20260903010054 75 78 0.0 0.0 0.00 0.00 0.00 57 1006.1
20260903004552 76 82 0.0 0.0 0.00 0.00 0.00 55 1006.0
20260903003052 77 124 0.0 1.0 0.00 0.00 0.00 54 1006.1
20260903001553 78 77 0.0 0.0 0.00 0.00 0.00 53 1006.1
20260903000052 80 112 0.0 0.0 0.00 0.00 0.00 52 1006.2
20260902234549 80 133 0.0 0.0 0.00 0.00 0.00 52 1006.1
20260902233048 81 136 0.0 0.0 0.00 0.00 0.00 51 1006.1
20260902231547 82 139 0.0 0.0 0.00 0.00 0.00 49 1006.3
20260902230045 82 129 0.0 0.0 0.00 0.00 0.00 51 1006.3
20260902224546 81 116 0.0 1.0 0.00 0.00 0.00 52 1006.4
20260902223040 80 85 0.0 0.0 0.00 0.00 0.00 52 1006.4
20260902221539 81 101 0.0 1.0 0.00 0.00 0.00 51 1006.4
20260902220038 80 105 0.0 0.0 0.00 0.00 0.00 52 1006.6
20260902214537 81 124 0.0 0.0 0.00 0.00 0.00 50 1006.8
20260902213033 81 140 0.0 0.0 0.00 0.00 0.00 49 1007.0
20260902211531 81 115 0.0 1.0 0.00 0.00 0.00 49 1007.0
20260902210046 81 167 0.0 1.0 0.00 0.00 0.00 49 1007.2
20260902204524 82 128 0.0 1.0 0.00 0.00 0.00 49 1007.3
20260902203021 81 103 0.0 3.0 0.00 0.00 0.00 47 1007.5
20260902201522 81 132 0.0 0.0 0.00 0.00 0.00 48 1007.8
20260902200024 80 131 0.0 0.0 0.00 0.00 0.00 48 1008.0
20260902194519 82 134 0.0 1.0 0.00 0.00 0.00 46 1008.0
20260902193046 81 166 0.0 1.0 0.00 0.00 0.00 46 1008.1
20260902191543 81 158 0.0 0.0 0.00 0.00 0.00 48 1008.2
20260902190037 80 150 0.0 1.0 0.00 0.00 0.00 48 1008.5